Boothville, LA

6:08 PM CST on February 25, 2017 (GMT -0600)
Boothville

Weather History for KBVE - January, 2014

Change the Weather History Date:

Tuesday, January 14, 2014

  Actual Average (KAXO) Record (KAXO)
Temperature  
Mean Temperature 66 °F -  
Max Temperature 78 °F 58 °F 69 °F (2007)
Min Temperature 51 °F 55 °F 44 °F (1997)
Cooling Degree Days 1    
Growing Degree Days 16 (Base 50)    
Moisture  
Dew Point 41 °F    
Average Humidity 50    
Maximum Humidity 66    
Minimum Humidity 21    
Precipitation  
Precipitation 0.00 in - - ()
Sea Level Pressure  
Sea Level Pressure 30.09 in    
Wind  
Wind Speed 10 mph (WNW)    
Max Wind Speed 16 mph    
Max Gust Speed 26 mph    
Visibility 10 miles    
Events      
Averages and records for this station are not official NWS values.
T = Trace of Precipitation, MM = Missing Value Source: NWS Daily Summary

Daily Weather History Graph

Daily Weather History Graph

Search for Another Location

Airport or City:

Trip Planner

Search our weather history database for the weather conditions in past years. The results will help you decide how hot, cold, wet, or windy it might be!

Date:

Astronomy

Jan. 14, 2014 Rise Set
Actual Time 6:52 AM CST 5:20 PM CST
Civil Twilight 6:27 AM CST 5:46 PM CST
Nautical Twilight 5:58 AM CST 6:15 PM CST
Astronomical Twilight 5:29 AM CST 6:44 PM CST
Moon 4:23 PM CST (1/14) 5:29 AM CST (1/14)
Length of Visible Light 11h 19m
Length of Day
10h 27m
Waxing Gibbous, 98% of the Moon is Illuminated
Jan 14
Waxing Gibbous
Jan 15
Full
Jan 23
Last Quarter
Jan 30
New
Feb 6
First Quarter

Hourly Weather History & Observations

Time (CST) Temp. Dew Point Humidity Pressure Visibility Wind Dir Wind Speed Gust Speed Precip Events Conditions
12:51 AM 62.1 °F 45.0 °F 53% 29.99 in 10.0 mi NW 16.1 mph 26.5 mph N/A   Mostly Cloudy
1:51 AM 60.1 °F 43.0 °F 53% 30.01 in 10.0 mi NW 13.8 mph - N/A   Partly Cloudy
2:51 AM 61.0 °F 41.0 °F 48% 30.02 in 10.0 mi NW 15.0 mph 21.9 mph N/A   Clear
3:51 AM 60.1 °F 41.0 °F 49% 30.03 in 10.0 mi NW 10.4 mph - N/A   Clear
4:51 AM 55.9 °F 39.9 °F 55% 30.04 in 10.0 mi NW 10.4 mph - N/A   Clear
5:51 AM 54.0 °F 39.9 °F 59% 30.05 in 10.0 mi NNW 8.1 mph - N/A   Clear
6:51 AM 55.9 °F 41.0 °F 57% 30.08 in 10.0 mi NW 8.1 mph - N/A   Clear
7:26 AM 57.0 °F 41.0 °F 55% 30.08 in 10.0 mi NW 6.9 mph - N/A   Partly Cloudy
7:51 AM 57.9 °F 42.1 °F 56% 30.10 in 10.0 mi NNW 9.2 mph - N/A   Clear
8:51 AM 57.0 °F 42.1 °F 57% 30.13 in 10.0 mi NNW 10.4 mph - N/A   Clear
9:51 AM 57.0 °F 41.0 °F 55% 30.14 in 10.0 mi North 8.1 mph - N/A   Clear
10:51 AM 59.0 °F 41.0 °F 51% 30.13 in 10.0 mi Variable 6.9 mph - N/A   Clear
11:51 AM 61.0 °F 41.0 °F 48% 30.10 in 10.0 mi North 4.6 mph - N/A   Clear
12:51 PM 62.1 °F 39.0 °F 43% 30.09 in 10.0 mi Variable 3.5 mph - N/A   Clear
1:51 PM 64.0 °F 39.0 °F 40% 30.08 in 10.0 mi Variable 3.5 mph - N/A   Clear
2:51 PM 66.9 °F 39.9 °F 37% 30.09 in 10.0 mi ENE 3.5 mph - N/A   Clear
3:51 PM 78.1 °F 35.1 °F 21% 30.09 in 10.0 mi South 3.5 mph - N/A   Clear
4:51 PM 69.1 °F 37.0 °F 31% 30.10 in 10.0 mi SW 3.5 mph - N/A   Clear
5:51 PM 68.0 °F 43.0 °F 40% 30.11 in 10.0 mi SSW 5.8 mph - N/A   Clear
6:51 PM 66.9 °F 44.1 °F 44% 30.12 in 10.0 mi SSW 6.9 mph - N/A   Clear
7:51 PM 60.1 °F 45.0 °F 57% 30.14 in 10.0 mi WSW 5.8 mph - N/A   Clear
8:51 PM 62.1 °F 46.0 °F 56% 30.14 in 10.0 mi WSW 5.8 mph - N/A   Clear
9:51 PM 60.1 °F 46.9 °F 62% 30.14 in 10.0 mi West 6.9 mph - N/A   Clear
10:51 PM 54.0 °F 42.1 °F 64% 30.13 in 10.0 mi West 5.8 mph - N/A   Clear
11:51 PM 51.1 °F 39.9 °F 66% 30.11 in 10.0 mi West 6.9 mph - N/A   Clear